Madera Ranchos
DateTemperatureDew Point
05/04 - 05:30 PM61.3°50.4°
05/04 - 05:15 PM61.2°50.8°
05/04 - 05:00 PM61.3°50.5°
05/04 - 04:45 PM62.0°50.0°
05/04 - 04:30 PM62.3°48.7°
05/04 - 04:15 PM62.7°49.2°
05/04 - 04:00 PM63.2°50.0°
05/04 - 03:45 PM62.8°49.6°
05/04 - 03:30 PM62.6°49.6°
05/04 - 03:15 PM62.4°49.4°
05/04 - 03:00 PM62.4°49.1°
05/04 - 02:45 PM63.1°49.2°
05/04 - 02:30 PM63.8°49.0°
05/04 - 02:15 PM64.4°49.4°
05/04 - 02:00 PM63.5°48.4°
05/04 - 01:45 PM63.3°48.6°
05/04 - 01:30 PM63.3°48.9°
05/04 - 01:15 PM63.5°49.3°
05/04 - 01:00 PM63.4°49.5°
05/04 - 12:45 PM62.5°49.2°
05/04 - 12:30 PM61.3°49.0°
05/04 - 12:15 PM60.5°49.0°
05/04 - 12:00 PM59.7°48.6°
05/04 - 11:45 AM59.3°48.5°
05/04 - 11:30 AM59.4°48.4°
05/04 - 11:15 AM59.2°48.1°
05/04 - 11:00 AM58.9°48.1°
05/04 - 10:45 AM59.4°48.5°
05/04 - 10:30 AM59.0°48.6°
05/04 - 10:15 AM58.7°48.1°
05/04 - 10:00 AM58.5°48.4°
05/04 - 09:45 AM58.6°48.6°
05/04 - 09:30 AM58.5°49.3°
05/04 - 09:15 AM57.8°49.7°
05/04 - 09:00 AM57.4°49.9°
05/04 - 08:45 AM57.1°49.9°
05/04 - 08:30 AM56.8°49.9°
05/04 - 08:15 AM56.7°50.0°
05/04 - 08:00 AM56.6°50.1°
05/04 - 07:45 AM56.4°49.9°
05/04 - 07:30 AM56.1°49.6°
05/04 - 07:15 AM55.9°49.4°
05/04 - 07:00 AM55.6°49.1°
05/04 - 06:45 AM55.3°49.0°
05/04 - 06:30 AM55.0°48.8°
05/04 - 06:15 AM54.8°48.5°
05/04 - 06:00 AM54.9°48.1°
05/04 - 05:45 AM54.8°47.7°
05/04 - 05:30 AM55.1°47.7°
05/04 - 05:15 AM55.2°47.6°
05/04 - 05:00 AM55.2°48.2°
05/04 - 04:45 AM55.3°48.4°
05/04 - 04:30 AM55.3°48.8°
05/04 - 04:15 AM55.4°48.8°
05/04 - 04:00 AM55.5°48.9°
05/04 - 03:45 AM55.6°48.8°
05/04 - 03:30 AM55.7°48.7°
05/04 - 03:15 AM55.8°48.5°
05/04 - 03:00 AM55.9°48.3°
05/04 - 02:45 AM55.9°48.0°
05/04 - 02:30 AM56.0°47.8°
05/04 - 02:15 AM55.7°47.2°
05/04 - 02:00 AM55.7°46.6°
05/04 - 01:45 AM55.7°46.0°
05/04 - 01:30 AM55.6°45.7°
05/04 - 01:15 AM55.2°44.9°
05/04 - 01:00 AM55.3°44.8°
05/04 - 12:45 AM55.3°45.0°
05/04 - 12:30 AM55.2°45.4°
05/04 - 12:15 AM55.1°45.9°
05/04 - 12:00 AM55.0°46.2°
05/03 - 11:45 PM55.2°46.4°
05/03 - 11:30 PM55.5°46.4°
05/03 - 11:15 PM55.7°46.3°
05/03 - 11:00 PM55.7°46.1°
05/03 - 10:45 PM56.3°46.7°
05/03 - 10:30 PM56.6°47.0°
05/03 - 10:15 PM56.9°46.7°
05/03 - 10:00 PM57.5°46.2°
05/03 - 09:45 PM58.0°45.7°
05/03 - 09:30 PM58.5°45.8°
05/03 - 09:15 PM58.7°46.4°
05/03 - 09:00 PM59.6°47.0°
05/03 - 08:45 PM60.8°47.1°
05/03 - 08:30 PM61.6°46.6°
05/03 - 08:15 PM62.0°46.9°
05/03 - 08:00 PM62.3°47.5°
05/03 - 07:45 PM62.6°48.2°
05/03 - 07:30 PM63.4°48.4°
05/03 - 07:15 PM64.3°48.6°
05/03 - 07:00 PM65.7°49.0°
05/03 - 06:45 PM67.1°49.8°
05/03 - 06:30 PM68.2°50.4°
05/03 - 06:15 PM69.2°50.8°
05/03 - 06:00 PM70.5°51.6°
05/03 - 05:45 PM72.1°52.6°
05/03 - 05:30 PM72.1°53.1°
05/03 - 05:15 PM73.1°53.6°
05/03 - 05:00 PM74.1°52.5°
05/03 - 04:45 PM73.7°51.2°
05/03 - 04:30 PM74.3°51.5°
05/03 - 04:15 PM73.0°52.1°
05/03 - 04:00 PM74.5°52.6°
05/03 - 03:45 PM74.5°52.9°
05/03 - 03:30 PM75.3°53.1°
05/03 - 03:15 PM74.2°52.7°
05/03 - 03:00 PM74.3°52.9°
05/03 - 02:45 PM73.4°53.1°
05/03 - 02:30 PM73.0°52.6°
05/03 - 02:15 PM73.4°53.0°
05/03 - 02:00 PM72.2°52.8°
05/03 - 01:45 PM73.0°52.8°
05/03 - 01:30 PM71.7°52.3°
05/03 - 01:15 PM71.9°52.8°
05/03 - 01:00 PM71.2°52.2°
05/03 - 12:45 PM71.1°52.1°
05/03 - 12:30 PM70.7°52.2°
05/03 - 12:15 PM70.2°52.1°
05/03 - 12:00 PM70.1°52.1°
05/03 - 11:45 AM68.9°52.2°
05/03 - 11:30 AM68.3°52.2°
05/03 - 11:15 AM67.5°51.8°
05/03 - 11:00 AM67.7°52.2°
05/03 - 10:45 AM66.9°52.3°
05/03 - 10:30 AM65.7°51.6°
05/03 - 10:15 AM66.0°52.5°
05/03 - 10:00 AM64.6°52.1°
05/03 - 09:45 AM64.0°51.7°
05/03 - 09:30 AM63.1°51.6°
05/03 - 09:15 AM62.5°51.8°
05/03 - 09:00 AM61.8°51.7°
05/03 - 08:45 AM61.1°51.6°
05/03 - 08:30 AM60.6°51.7°
05/03 - 08:15 AM59.6°51.6°
05/03 - 08:00 AM58.8°51.6°
05/03 - 07:45 AM58.0°52.0°
05/03 - 07:30 AM57.1°52.0°
05/03 - 07:15 AM56.2°52.3°
05/03 - 07:00 AM54.9°52.0°
05/03 - 06:45 AM54.1°51.9°
05/03 - 06:30 AM53.3°51.8°
05/03 - 06:15 AM53.0°51.7°
05/03 - 06:00 AM52.6°51.4°
05/03 - 05:45 AM52.3°51.5°
05/03 - 05:30 AM52.1°51.4°
05/03 - 05:15 AM52.2°51.5°
05/03 - 05:00 AM52.4°51.5°
05/03 - 04:45 AM52.5°51.6°
05/03 - 04:30 AM52.6°51.5°
05/03 - 04:15 AM53.0°51.6°
05/03 - 04:00 AM53.5°51.8°
05/03 - 03:45 AM53.8°52.0°
05/03 - 03:30 AM54.0°52.2°
05/03 - 03:15 AM54.4°52.3°
05/03 - 03:00 AM54.7°52.5°
05/03 - 02:45 AM54.7°52.6°
05/03 - 02:30 AM55.1°52.6°
05/03 - 02:15 AM55.6°52.6°
05/03 - 02:00 AM56.1°52.6°
05/03 - 01:45 AM56.3°52.4°
05/03 - 01:30 AM56.5°52.3°
05/03 - 01:15 AM56.8°52.1°
05/03 - 01:00 AM57.1°52.3°
05/03 - 12:45 AM57.4°52.7°
05/03 - 12:30 AM58.0°53.4°
05/03 - 12:15 AM58.6°54.3°
05/03 - 12:00 AM59.2°54.5°
05/02 - 11:45 PM59.8°54.7°
05/02 - 11:30 PM60.6°55.0°
05/02 - 11:15 PM61.3°55.2°
05/02 - 11:00 PM62.1°55.2°
05/02 - 10:45 PM63.0°55.5°
05/02 - 10:30 PM64.3°56.8°
05/02 - 10:15 PM65.1°57.2°
05/02 - 10:00 PM65.2°57.7°
05/02 - 09:45 PM65.6°58.2°
05/02 - 09:30 PM66.2°58.4°
05/02 - 09:15 PM67.3°58.1°
05/02 - 09:00 PM68.5°57.6°
05/02 - 08:45 PM69.2°58.0°
05/02 - 08:30 PM69.7°58.2°
05/02 - 08:15 PM71.1°58.1°
05/02 - 08:00 PM72.0°58.3°
05/02 - 07:45 PM73.0°58.7°
05/02 - 07:30 PM73.9°59.2°
05/02 - 07:15 PM75.4°59.0°
05/02 - 07:00 PM76.6°58.6°
05/02 - 06:45 PM77.7°58.5°
05/02 - 06:30 PM78.7°59.0°
05/02 - 06:15 PM79.6°59.3°